#timestamp,LO_Frequency,Hit 
1500145215.6,286049709.9,N
1500145235.5,286049709.5,N
1500145255.3,286049708.8,N
1500145275.2,286049709.0,N
1500145295.9,286049709.5,N
1500145315.7,286049711.5,N
1500145335.6,286049711.1,N
1500145355.4,286049709.5,N
1500145375.2,286049707.5,N
1500145395.1,286049707.0,N
1500145396.0,286049707.0,N
1500145415.8,286049708.7,N
1500145435.7,286049709.4,N
1500145455.5,286049708.8,N
1500145475.3,286049710.8,N
1500145495.2,286049710.6,N
1500145515.0,286049709.8,N
1500145515.9,286049709.8,N
1500145535.8,286049708.7,N
1500145555.6,286049708.5,N
1500145575.4,286049708.7,N
1500145595.3,286049708.8,N
1500145615.1,286049711.6,N
1500145635.8,286049711.5,N
1500145655.7,286049708.6,N
1500145675.5,286049708.8,N
1500145695.4,286049708.5,N
1500145715.2,286049709.3,N
1500145735.0,286049710.9,N
1500145735.9,286049710.9,N
1500145755.8,286049712.8,N
1500145775.6,286049710.7,N
1500145795.5,286049710.8,N
1500145815.3,286049712.4,N
1500145835.1,286049712.6,N
1500145855.9,286049711.7,N
1500145875.7,286049712.6,N
1500145895.6,286049712.9,N
1500145915.4,286049710.1,N
1500145935.2,286049711.4,N
1500145955.1,286049713.1,N
1500145956.0,286049713.1,N
1500145975.8,286049711.9,N
1500145995.6,286049711.7,N
1500146015.5,286049712.0,N
1500146035.3,286049710.7,N
1500146055.2,286049710.7,N
1500146075.9,286049714.4,N
1500146095.7,286049713.0,N
1500146115.6,286049710.6,N
1500146135.4,286049713.4,N
1500146155.2,286049716.4,N
1500146175.1,286049712.2,N
1500146176.0,286049712.2,N
1500146195.8,286049712.1,N
1500146215.7,286049716.0,N
1500146235.5,286049712.1,N
1500146255.3,286049712.6,N
1500146275.2,286049712.9,N
1500146295.0,286049714.7,N
1500146295.9,286049714.7,N
1500146315.8,286049711.8,N
1500146335.6,286049711.7,N
1500146355.4,286049714.2,N
1500146375.3,286049714.1,N
1500146395.1,286049712.6,N
1500146415.8,286049713.5,N
1500146435.7,286049712.7,N
1500146455.5,286049710.5,N
1500146475.4,286049712.3,N
1500146495.2,286049713.3,N
1500146515.0,286049714.4,N
1500146515.9,286049714.4,N
1500146535.8,286049714.7,N
1500146555.6,286049714.8,N
1500146575.5,286049711.8,N
1500146595.3,286049712.4,N
1500146615.1,286049712.7,N
1500146635.9,286049712.4,N
1500146655.7,286049712.1,N
1500146675.5,286049712.5,N
1500146695.4,286049710.4,N
1500146715.2,286049711.3,N
1500146735.1,286049712.5,N
1500146736.0,286049712.5,N
1500146755.8,286049712.1,N
1500146775.6,286049716.0,N
1500146795.5,286049713.6,N
1500146815.3,286049713.9,N
1500146835.1,286049712.1,N
1500146855.9,286049714.8,N
1500146875.7,286049711.8,N
1500146895.6,286049717.6,N
1500146915.4,286049716.2,N
1500146935.2,286049717.9,N
1500146955.1,286049716.9,N
1500146956.0,286049716.9,N
1500146975.8,286049717.9,N
1500146995.7,286049715.5,N
1500147015.5,286049715.9,N
1500147035.3,286049716.0,N
1500147055.2,286049715.0,N
1500147075.0,286049716.3,N
1500147075.9,286049716.3,N
1500147095.7,286049714.3,N
1500147115.6,286049714.5,N
1500147135.4,286049714.6,N
1500147155.3,286049713.4,N
1500147175.1,286049716.4,N
1500147176.0,286049716.4,N
1500147195.8,286049711.7,N
1500147215.7,286049713.5,N
1500147235.5,286049713.6,N
1500147255.3,286049716.1,N
1500147275.2,286049715.7,N
1500147295.0,286049713.7,N
1500147295.9,286049713.7,N
1500147315.8,286049714.1,N
1500147335.6,286049715.4,N
1500147355.4,286049714.9,N
1500147375.3,286049713.9,N
1500147395.1,286049715.8,N
1500147415.9,286049715.7,N
1500147435.7,286049717.9,N
1500147455.5,286049713.8,N
1500147475.4,286049712.4,N
1500147495.2,286049713.5,N
1500147515.0,286049714.5,N
1500147515.9,286049714.5,N
1500147535.8,286049717.8,N
1500147555.6,286049717.1,N
1500147575.5,286049715.2,N
1500147595.3,286049715.3,N
1500147615.1,286049714.9,N
1500147635.9,286049714.2,N
1500147655.7,286049713.2,N
1500147675.6,286049712.7,N
1500147695.4,286049715.7,N
1500147715.2,286049714.7,N
1500147735.1,286049714.6,N
1500147736.0,286049714.6,N
1500147755.8,286049713.6,N
1500147775.7,286049713.0,N
1500147795.5,286049713.4,N
1500147815.3,286049714.2,N
1500147835.2,286049712.3,N
1500147855.0,286049714.5,N
1500147855.9,286049714.5,N
1500147875.7,286049716.3,N
1500147895.6,286049714.4,N
1500147915.4,286049714.7,N
1500147935.3,286049713.4,N
1500147955.1,286049716.1,N
1500147975.8,286049716.7,N
1500147995.7,286049718.0,N
1500148015.5,286049716.6,N
1500148035.4,286049717.4,N
1500148055.2,286049718.4,N
1500148075.0,286049715.0,N
1500148075.9,286049715.0,N
1500148095.8,286049717.6,N
1500148115.6,286049718.5,N
1500148135.4,286049717.2,N
1500148155.3,286049714.9,N
1500148175.1,286049715.1,N
1500148195.9,286049718.0,N
1500148215.7,286049715.1,N
1500148235.5,286049715.8,N
1500148255.4,286049715.2,N
1500148275.2,286049714.9,N
1500148295.0,286049717.9,N
1500148295.9,286049717.9,N
1500148315.8,286049717.7,N
1500148335.6,286049718.0,N
1500148355.5,286049716.3,N
1500148375.3,286049714.2,N
1500148395.1,286049714.2,N
1500148415.9,286049711.9,N
1500148435.7,286049713.2,N
1500148455.6,286049710.5,N
1500148475.4,286049710.6,N
1500148495.2,286049711.0,N
1500148515.1,286049710.7,N
1500148516.0,286049710.7,N
1500148535.8,286049710.3,N
1500148555.6,286049713.2,N
1500148575.5,286049711.4,N
1500148595.3,286049711.5,N
1500148615.2,286049711.1,N
1500148635.9,286049711.3,N
1500148655.7,286049710.7,N
1500148675.6,286049711.2,N
1500148695.4,286049709.2,N
1500148715.2,286049706.9,N
1500148735.1,286049707.4,N
1500148736.0,286049707.4,N
1500148755.8,286049709.2,N
1500148775.7,286049709.3,N
1500148795.5,286049706.9,N
